| time (UTC) | temp F | wind direction | speed MPH | gust MPH | rain 1hr in | rain 24hr in | rain mn in | humidity % | barometer mb |
| 20260506185056 | 65 | 208 | 6.0 | 15.0 | 0.00 | 0.00 | 0.00 | 69 | 1017.1 |
| 20260506184554 | 65 | 271 | 7.0 | 15.0 | 0.00 | 0.00 | 0.00 | 69 | 1017.1 |
| 20260506184055 | 65 | 281 | 7.0 | 11.0 | 0.00 | 0.00 | 0.00 | 68 | 1017.1 |
| 20260506183555 | 65 | 273 | 5.0 | 11.0 | 0.00 | 0.00 | 0.00 | 68 | 1017.0 |
| 20260506183055 | 65 | 286 | 5.0 | 10.0 | 0.00 | 0.00 | 0.00 | 69 | 1017.1 |
| 20260506182555 | 66 | 178 | 5.0 | 11.0 | 0.00 | 0.00 | 0.00 | 68 | 1017.2 |
| 20260506182054 | 66 | 140 | 4.0 | 11.0 | 0.00 | 0.00 | 0.00 | 69 | 1017.1 |
| 20260506181555 | 66 | 302 | 3.0 | 9.0 | 0.00 | 0.00 | 0.00 | 69 | 1017.2 |
| 20260506181052 | 65 | 225 | 4.0 | 10.0 | 0.00 | 0.00 | 0.00 | 69 | 1017.2 |
| 20260506180553 | 65 | 303 | 5.0 | 11.0 | 0.00 | 0.00 | 0.00 | 71 | 1017.2 |
| 20260506180104 | 65 | 188 | 4.0 | 11.0 | 0.00 | 0.00 | 0.00 | 70 | 1017.1 |
| 20260506175552 | 66 | 199 | 4.0 | 11.0 | 0.00 | 0.00 | 0.00 | 69 | 1017.2 |
| 20260506175056 | 66 | 171 | 5.0 | 9.0 | 0.00 | 0.00 | 0.00 | 68 | 1017.3 |
| 20260506174557 | 66 | 130 | 2.0 | 7.0 | 0.00 | 0.00 | 0.00 | 66 | 1017.4 |
| 20260506174052 | 66 | 168 | 3.0 | 8.0 | 0.00 | 0.00 | 0.00 | 67 | 1017.4 |
| 20260506173553 | 65 | 102 | 2.0 | 8.0 | 0.00 | 0.00 | 0.00 | 68 | 1017.3 |
| 20260506173058 | 65 | 295 | 4.0 | 10.0 | 0.00 | 0.00 | 0.00 | 68 | 1017.2 |
| 20260506172551 | 65 | 265 | 4.0 | 10.0 | 0.00 | 0.00 | 0.00 | 67 | 1017.3 |
| 20260506172055 | 66 | 186 | 2.0 | 9.0 | 0.00 | 0.00 | 0.00 | 67 | 1017.3 |
| 20260506171601 | 66 | 309 | 1.0 | 6.0 | 0.00 | 0.00 | 0.00 | 67 | 1017.3 |
| 20260506171056 | 65 | 257 | 1.0 | 3.0 | 0.00 | 0.00 | 0.00 | 67 | 1017.3 |
| 20260506170552 | 64 | 87 | 1.0 | 4.0 | 0.00 | 0.00 | 0.00 | 68 | 1017.1 |
| 20260506170106 | 64 | 265 | 1.0 | 6.0 | 0.00 | 0.00 | 0.00 | 68 | 1017.1 |
| 20260506165552 | 64 | 0 | 2.0 | 6.0 | 0.00 | 0.00 | 0.00 | 68 | 1017.2 |
| 20260506165053 | 64 | 218 | 2.0 | 6.0 | 0.00 | 0.00 | 0.00 | 68 | 1017.2 |
| 20260506164607 | 64 | 0 | 1.0 | 6.0 | 0.00 | 0.00 | 0.00 | 69 | 1017.1 |
| 20260506164053 | 63 | 274 | 3.0 | 6.0 | 0.00 | 0.00 | 0.00 | 70 | 1017.1 |
| 20260506163552 | 63 | 226 | 2.0 | 6.0 | 0.00 | 0.00 | 0.00 | 70 | 1017.2 |
| 20260506163119 | 63 | 0 | 1.0 | 4.0 | 0.00 | 0.00 | 0.00 | 72 | 1017.1 |
| 20260506162553 | 63 | 59 | 1.0 | 5.0 | 0.00 | 0.00 | 0.00 | 72 | 1017.2 |
| 20260506162054 | 63 | 198 | 2.0 | 6.0 | 0.00 | 0.00 | 0.00 | 73 | 1017.4 |
| 20260506161616 | 63 | 175 | 1.0 | 6.0 | 0.00 | 0.00 | 0.00 | 72 | 1017.3 |
| 20260506161052 | 63 | 80 | 2.0 | 6.0 | 0.00 | 0.00 | 0.00 | 73 | 1017.3 |
| 20260506160555 | 63 | 92 | 2.0 | 6.0 | 0.00 | 0.00 | 0.00 | 73 | 1017.3 |
| 20260506160057 | 63 | 109 | 1.0 | 4.0 | 0.00 | 0.00 | 0.00 | 74 | 1017.3 |
| 20260506155556 | 62 | 89 | 1.0 | 5.0 | 0.00 | 0.00 | 0.00 | 75 | 1017.4 |
| 20260506155054 | 62 | 62 | 1.0 | 5.0 | 0.00 | 0.00 | 0.00 | 76 | 1017.4 |
| 20260506154619 | 61 | 55 | 1.0 | 6.0 | 0.00 | 0.00 | 0.00 | 77 | 1017.4 |
| 20260506154052 | 61 | 5 | 1.0 | 6.0 | 0.00 | 0.00 | 0.00 | 77 | 1017.3 |
| 20260506153553 | 61 | 85 | 1.0 | 6.0 | 0.00 | 0.00 | 0.00 | 78 | 1017.4 |
| 20260506153107 | 60 | 118 | 2.0 | 6.0 | 0.00 | 0.00 | 0.00 | 79 | 1017.4 |
| 20260506152553 | 60 | 83 | 0.0 | 7.0 | 0.00 | 0.00 | 0.00 | 81 | 1017.3 |
| 20260506152058 | 60 | 32 | 1.0 | 7.0 | 0.00 | 0.00 | 0.00 | 81 | 1017.3 |
| 20260506151558 | 59 | 0 | 3.0 | 7.0 | 0.00 | 0.00 | 0.00 | 81 | 1017.3 |
| 20260506151052 | 59 | 93 | 3.0 | 7.0 | 0.00 | 0.00 | 0.00 | 81 | 1017.2 |
| 20260506150555 | 59 | 57 | 1.0 | 5.0 | 0.00 | 0.00 | 0.00 | 82 | 1017.3 |
| 20260506150052 | 59 | 0 | 1.0 | 8.0 | 0.00 | 0.00 | 0.00 | 82 | 1017.3 |
| 20260506145554 | 59 | 31 | 2.0 | 8.0 | 0.00 | 0.00 | 0.00 | 82 | 1017.3 |
| 20260506145054 | 59 | 75 | 2.0 | 6.0 | 0.00 | 0.00 | 0.00 | 82 | 1017.3 |
| 20260506144553 | 59 | 59 | 2.0 | 5.0 | 0.00 | 0.00 | 0.00 | 82 | 1017.4 |
| 20260506144054 | 58 | 26 | 1.0 | 5.0 | 0.00 | 0.00 | 0.00 | 82 | 1017.3 |
| 20260506143555 | 58 | 352 | 1.0 | 5.0 | 0.00 | 0.00 | 0.00 | 83 | 1017.4 |
| 20260506143104 | 57 | 35 | 1.0 | 5.0 | 0.00 | 0.00 | 0.00 | 83 | 1017.4 |
| 20260506142556 | 57 | 21 | 0.0 | 4.0 | 0.00 | 0.00 | 0.00 | 84 | 1017.2 |
| 20260506142052 | 57 | 43 | 1.0 | 3.0 | 0.00 | 0.00 | 0.00 | 85 | 1017.2 |
| 20260506141554 | 56 | 0 | 0.0 | 3.0 | 0.00 | 0.00 | 0.00 | 85 | 1017.1 |
| 20260506141055 | 56 | 20 | 0.0 | 3.0 | 0.00 | 0.00 | 0.00 | 85 | 1017.1 |
| 20260506140555 | 55 | 0 | 0.0 | 2.0 | 0.00 | 0.00 | 0.00 | 85 | 1017.0 |
| 20260506140057 | 55 | 345 | 0.0 | 2.0 | 0.00 | 0.00 | 0.00 | 85 | 1017.0 |
| 20260506135552 | 55 | 0 | 0.0 | 1.0 | 0.00 | 0.00 | 0.00 | 86 | 1016.9 |
| 20260506135052 | 54 | 0 | 0.0 | 2.0 | 0.00 | 0.00 | 0.00 | 87 | 1016.9 |
| 20260506134555 | 54 | 0 | 0.0 | 2.0 | 0.00 | 0.00 | 0.00 | 87 | 1016.7 |
| 20260506134052 | 54 | 0 | 0.0 | 2.0 | 0.00 | 0.00 | 0.00 | 87 | 1016.8 |
| 20260506133552 | 53 | 0 | 0.0 | 1.0 | 0.00 | 0.00 | 0.00 | 88 | 1016.8 |
| 20260506133057 | 53 | 0 | 0.0 | 2.0 | 0.00 | 0.00 | 0.00 | 88 | 1016.7 |
| 20260506132551 | 53 | 0 | 0.0 | 2.0 | 0.00 | 0.00 | 0.00 | 88 | 1016.7 |
| 20260506132057 | 53 | 0 | 0.0 | 1.0 | 0.00 | 0.00 | 0.00 | 87 | 1016.7 |
| 20260506131557 | 53 | 0 | 0.0 | 2.0 | 0.00 | 0.00 | 0.00 | 87 | 1016.6 |
| 20260506131052 | 53 | 0 | 0.0 | 3.0 | 0.00 | 0.00 | 0.00 | 87 | 1016.6 |
| 20260506130553 | 53 | 0 | 0.0 | 3.0 | 0.00 | 0.00 | 0.00 | 88 | 1016.5 |
| 20260506130054 | 53 | 342 | 0.0 | 3.0 | 0.00 | 0.00 | 0.00 | 87 | 1016.5 |
| 20260506125552 | 53 | 331 | 0.0 | 1.0 | 0.00 | 0.00 | 0.00 | 87 | 1016.3 |
| 20260506125057 | 53 | 0 | 0.0 | 1.0 | 0.00 | 0.00 | 0.00 | 87 | 1016.3 |
| 20260506124553 | 53 | 0 | 0.0 | 0.0 | 0.00 | 0.00 | 0.00 | 87 | 1016.2 |
| 20260506124052 | 53 | 0 | 0.0 | 0.0 | 0.00 | 0.00 | 0.00 | 87 | 1016.2 |
| 20260506123553 | 53 | 0 | 0.0 | 0.0 | 0.00 | 0.00 | 0.00 | 87 | 1016.0 |
| 20260506123055 | 53 | 0 | 0.0 | 0.0 | 0.00 | 0.00 | 0.00 | 87 | 1016.1 |
| 20260506122553 | 53 | 0 | 0.0 | 0.0 | 0.00 | 0.00 | 0.00 | 87 | 1016.1 |
| 20260506122052 | 53 | 0 | 0.0 | 1.0 | 0.00 | 0.00 | 0.00 | 87 | 1016.1 |
| 20260506121553 | 53 | 0 | 0.0 | 2.0 | 0.00 | 0.00 | 0.00 | 87 | 1016.0 |
| 20260506121055 | 53 | 0 | 0.0 | 2.0 | 0.00 | 0.00 | 0.00 | 87 | 1016.0 |
| 20260506120555 | 53 | 332 | 0.0 | 2.0 | 0.00 | 0.00 | 0.00 | 87 | 1016.0 |
| 20260506120058 | 53 | 0 | 0.0 | 2.0 | 0.00 | 0.00 | 0.00 | 87 | 1016.0 |
| 20260506115552 | 53 | 0 | 0.0 | 2.0 | 0.00 | 0.00 | 0.00 | 87 | 1015.9 |
| 20260506115052 | 53 | 321 | 0.0 | 0.0 | 0.00 | 0.00 | 0.00 | 87 | 1015.9 |
| 20260506114605 | 53 | 0 | 0.0 | 1.0 | 0.00 | 0.00 | 0.00 | 87 | 1015.9 |
| 20260506114058 | 53 | 0 | 0.0 | 2.0 | 0.00 | 0.00 | 0.00 | 87 | 1016.0 |
| 20260506113552 | 53 | 0 | 0.0 | 2.0 | 0.00 | 0.00 | 0.00 | 87 | 1015.9 |
| 20260506113055 | 54 | 0 | 0.0 | 2.0 | 0.00 | 0.00 | 0.00 | 87 | 1015.9 |
| 20260506112556 | 54 | 0 | 0.0 | 1.0 | 0.00 | 0.00 | 0.00 | 87 | 1015.9 |
| 20260506112052 | 54 | 0 | 0.0 | 2.0 | 0.00 | 0.00 | 0.00 | 87 | 1015.8 |
| 20260506111555 | 54 | 0 | 0.0 | 3.0 | 0.00 | 0.00 | 0.00 | 87 | 1015.9 |
| 20260506111055 | 54 | 0 | 0.0 | 3.0 | 0.00 | 0.00 | 0.00 | 87 | 1015.8 |
| 20260506110555 | 54 | 0 | 1.0 | 3.0 | 0.00 | 0.00 | 0.00 | 87 | 1015.8 |
| 20260506110104 | 54 | 325 | 0.0 | 1.0 | 0.00 | 0.00 | 0.00 | 87 | 1015.9 |
| 20260506105558 | 54 | 0 | 0.0 | 2.0 | 0.00 | 0.00 | 0.00 | 87 | 1015.8 |
| 20260506105054 | 54 | 0 | 0.0 | 2.0 | 0.00 | 0.00 | 0.00 | 87 | 1015.9 |
| 20260506104553 | 54 | 0 | 0.0 | 2.0 | 0.00 | 0.00 | 0.00 | 87 | 1016.0 |
| 20260506104054 | 54 | 0 | 0.0 | 0.0 | 0.00 | 0.00 | 0.00 | 87 | 1016.0 |
| 20260506103554 | 54 | 0 | 0.0 | 0.0 | 0.00 | 0.00 | 0.00 | 87 | 1015.9 |
| 20260506103059 | 54 | 0 | 0.0 | 0.0 | 0.00 | 0.00 | 0.00 | 87 | 1015.9 |
| 20260506102555 | 54 | 0 | 0.0 | 0.0 | 0.00 | 0.00 | 0.00 | 87 | 1016.0 |
| 20260506102055 | 54 | 0 | 0.0 | 0.0 | 0.00 | 0.00 | 0.00 | 87 | 1015.9 |
| 20260506101603 | 54 | 0 | 0.0 | 3.0 | 0.00 | 0.00 | 0.00 | 87 | 1016.0 |
| 20260506101055 | 54 | 0 | 1.0 | 3.0 | 0.00 | 0.00 | 0.00 | 87 | 1015.9 |
| 20260506100555 | 54 | 0 | 0.0 | 2.0 | 0.00 | 0.00 | 0.00 | 87 | 1015.9 |
| 20260506100055 | 54 | 0 | 0.0 | 2.0 | 0.00 | 0.00 | 0.00 | 87 | 1015.9 |
| 20260506095559 | 54 | 0 | 0.0 | 2.0 | 0.00 | 0.00 | 0.00 | 87 | 1016.0 |
| 20260506095055 | 54 | 0 | 0.0 | 4.0 | 0.00 | 0.00 | 0.00 | 87 | 1016.1 |
| 20260506094622 | 54 | 0 | 1.0 | 4.0 | 0.00 | 0.00 | 0.00 | 87 | 1016.0 |
| 20260506094054 | 54 | 351 | 0.0 | 3.0 | 0.00 | 0.00 | 0.00 | 87 | 1016.0 |
| 20260506093556 | 54 | 0 | 0.0 | 3.0 | 0.00 | 0.00 | 0.00 | 87 | 1016.0 |
| 20260506093058 | 54 | 0 | 0.0 | 3.0 | 0.00 | 0.00 | 0.00 | 87 | 1016.0 |
| 20260506092555 | 54 | 321 | 0.0 | 2.0 | 0.00 | 0.00 | 0.00 | 87 | 1016.0 |
| 20260506092055 | 54 | 0 | 0.0 | 2.0 | 0.00 | 0.00 | 0.00 | 87 | 1015.9 |
| 20260506091556 | 54 | 0 | 0.0 | 2.0 | 0.00 | 0.00 | 0.00 | 87 | 1016.0 |
| 20260506091054 | 54 | 0 | 0.0 | 1.0 | 0.00 | 0.00 | 0.00 | 87 | 1016.1 |
| 20260506090554 | 54 | 0 | 0.0 | 1.0 | 0.00 | 0.00 | 0.00 | 87 | 1016.1 |
| 20260506085555 | 54 | 0 | 0.0 | 3.0 | 0.00 | 0.00 | 0.00 | 87 | 1016.3 |
| 20260506085055 | 54 | 0 | 1.0 | 4.0 | 0.00 | 0.00 | 0.00 | 87 | 1016.2 |
| 20260506084554 | 54 | 349 | 1.0 | 4.0 | 0.00 | 0.00 | 0.00 | 87 | 1016.3 |
| 20260506084058 | 54 | 0 | 2.0 | 4.0 | 0.00 | 0.00 | 0.00 | 87 | 1016.3 |
| 20260506083555 | 54 | 338 | 2.0 | 4.0 | 0.00 | 0.00 | 0.00 | 86 | 1016.4 |
| 20260506083103 | 54 | 343 | 2.0 | 3.0 | 0.00 | 0.00 | 0.00 | 86 | 1016.2 |
| 20260506082558 | 54 | 331 | 0.0 | 1.0 | 0.00 | 0.00 | 0.00 | 86 | 1016.3 |
| 20260506082055 | 54 | 0 | 0.0 | 1.0 | 0.00 | 0.00 | 0.00 | 86 | 1016.3 |
| 20260506081555 | 54 | 0 | 0.0 | 2.0 | 0.00 | 0.00 | 0.00 | 86 | 1016.4 |
| 20260506081054 | 54 | 0 | 0.0 | 3.0 | 0.00 | 0.00 | 0.00 | 86 | 1016.4 |
| 20260506080556 | 54 | 0 | 0.0 | 4.0 | 0.00 | 0.00 | 0.00 | 86 | 1016.5 |
| 20260506073058 | 54 | 323 | 2.0 | 4.0 | 0.00 | 0.00 | 0.00 | 85 | 1016.5 |
| 20260506072555 | 54 | 339 | 0.0 | 2.0 | 0.00 | 0.00 | 0.00 | 85 | 1016.5 |
| 20260506072052 | 54 | 0 | 0.0 | 0.0 | 0.00 | 0.00 | 0.00 | 85 | 1016.5 |
| 20260506071557 | 54 | 0 | 0.0 | 0.0 | 0.00 | 0.00 | 0.00 | 85 | 1016.5 |
| 20260506071056 | 54 | 0 | 0.0 | 0.0 | 0.00 | 0.00 | 0.00 | 85 | 1016.5 |
| 20260506070552 | 54 | 0 | 0.0 | 0.0 | 0.00 | 0.00 | 0.00 | 85 | 1016.4 |
| 20260506070104 | 54 | 0 | 0.0 | 0.0 | 0.00 | 0.00 | 0.00 | 84 | 1016.3 |
| 20260506062052 | 55 | 338 | 1.0 | 4.0 | 0.00 | 0.00 | 0.00 | 84 | 1015.9 |
| 20260506061600 | 55 | 345 | 2.0 | 4.0 | 0.00 | 0.00 | 0.00 | 84 | 1016.0 |
| 20260506061053 | 55 | 0 | 0.0 | 3.0 | 0.00 | 0.00 | 0.00 | 83 | 1016.0 |
| 20260506060553 | 55 | 352 | 1.0 | 3.0 | 0.00 | 0.00 | 0.00 | 83 | 1015.9 |
| 20260506060104 | 55 | 0 | 0.0 | 3.0 | 0.00 | 0.00 | 0.00 | 83 | 1015.9 |
| 20260506051052 | 56 | 0 | 0.0 | 2.0 | 0.00 | 0.00 | 0.00 | 80 | 1015.4 |
| 20260506050552 | 56 | 346 | 0.0 | 2.0 | 0.00 | 0.00 | 0.00 | 80 | 1015.5 |
| 20260506045052 | 57 | 352 | 0.0 | 2.0 | 0.00 | 0.00 | 0.00 | 79 | 1015.3 |
| 20260506044555 | 57 | 0 | 0.0 | 2.0 | 0.00 | 0.00 | 0.00 | 79 | 1015.2 |
| 20260506044052 | 57 | 352 | 0.0 | 2.0 | 0.00 | 0.00 | 0.00 | 79 | 1015.1 |
| 20260506043552 | 58 | 0 | 0.0 | 2.0 | 0.00 | 0.00 | 0.00 | 78 | 1015.0 |
| 20260506043053 | 58 | 0 | 0.0 | 2.0 | 0.00 | 0.00 | 0.00 | 78 | 1015.0 |
| 20260506042552 | 58 | 339 | 0.0 | 2.0 | 0.00 | 0.00 | 0.00 | 77 | 1014.9 |
| 20260506042055 | 58 | 0 | 0.0 | 2.0 | 0.00 | 0.00 | 0.00 | 76 | 1014.9 |
| 20260506041556 | 58 | 0 | 0.0 | 2.0 | 0.00 | 0.00 | 0.00 | 76 | 1014.8 |
| 20260506041052 | 58 | 0 | 0.0 | 4.0 | 0.00 | 0.00 | 0.00 | 76 | 1014.8 |
| 20260506040552 | 58 | 0 | 0.0 | 4.0 | 0.00 | 0.00 | 0.00 | 76 | 1014.6 |
| 20260506040101 | 58 | 0 | 1.0 | 4.0 | 0.00 | 0.00 | 0.00 | 77 | 1014.6 |
| 20260506035551 | 58 | 273 | 1.0 | 4.0 | 0.00 | 0.00 | 0.00 | 76 | 1014.6 |
| 20260506035053 | 58 | 0 | 1.0 | 4.0 | 0.00 | 0.00 | 0.00 | 76 | 1014.6 |
| 20260506034606 | 59 | 266 | 1.0 | 4.0 | 0.00 | 0.00 | 0.00 | 76 | 1014.5 |
| 20260506034052 | 59 | 279 | 0.0 | 4.0 | 0.00 | 0.00 | 0.00 | 76 | 1014.5 |
| 20260506033552 | 59 | 279 | 0.0 | 2.0 | 0.00 | 0.00 | 0.00 | 76 | 1014.4 |
| 20260506033054 | 59 | 285 | 0.0 | 6.0 | 0.00 | 0.00 | 0.00 | 76 | 1014.4 |
| 20260506032552 | 59 | 287 | 1.0 | 7.0 | 0.00 | 0.00 | 0.00 | 76 | 1014.4 |
| 20260506032058 | 59 | 275 | 1.0 | 7.0 | 0.00 | 0.00 | 0.00 | 76 | 1014.2 |
| 20260506031600 | 59 | 274 | 4.0 | 8.0 | 0.00 | 0.00 | 0.00 | 76 | 1014.2 |
| 20260506031057 | 59 | 0 | 2.0 | 9.0 | 0.00 | 0.00 | 0.00 | 75 | 1013.9 |
| 20260506030551 | 59 | 273 | 5.0 | 9.0 | 0.00 | 0.00 | 0.00 | 75 | 1013.9 |
| 20260506030056 | 59 | 302 | 2.0 | 9.0 | 0.00 | 0.00 | 0.00 | 76 | 1014.0 |
| 20260506025552 | 59 | 307 | 3.0 | 9.0 | 0.00 | 0.00 | 0.00 | 76 | 1013.9 |
| 20260506025052 | 59 | 293 | 3.0 | 10.0 | 0.00 | 0.00 | 0.00 | 75 | 1013.9 |
| 20260506024554 | 59 | 276 | 3.0 | 10.0 | 0.00 | 0.00 | 0.00 | 75 | 1013.7 |
| 20260506024053 | 59 | 213 | 5.0 | 11.0 | 0.00 | 0.00 | 0.00 | 75 | 1013.8 |
| 20260506023553 | 59 | 196 | 2.0 | 11.0 | 0.00 | 0.00 | 0.00 | 75 | 1013.7 |
| 20260506023056 | 59 | 264 | 5.0 | 10.0 | 0.00 | 0.00 | 0.00 | 74 | 1013.6 |
| 20260506022552 | 60 | 267 | 2.0 | 12.0 | 0.00 | 0.00 | 0.00 | 75 | 1013.5 |
| 20260506022052 | 60 | 294 | 4.0 | 12.0 | 0.00 | 0.00 | 0.00 | 75 | 1013.4 |
| 20260506021557 | 60 | 263 | 6.0 | 12.0 | 0.00 | 0.00 | 0.00 | 74 | 1013.3 |
| 20260506021055 | 60 | 288 | 4.0 | 10.0 | 0.00 | 0.00 | 0.00 | 73 | 1013.3 |
| 20260506020554 | 60 | 195 | 4.0 | 9.0 | 0.00 | 0.00 | 0.00 | 74 | 1013.2 |
| 20260506015555 | 60 | 292 | 7.0 | 12.0 | 0.00 | 0.00 | 0.00 | 72 | 1013.2 |
| 20260506015055 | 60 | 228 | 4.0 | 11.0 | 0.00 | 0.00 | 0.00 | 73 | 1013.2 |
| 20260506014555 | 60 | 218 | 5.0 | 11.0 | 0.00 | 0.00 | 0.00 | 73 | 1013.3 |
| 20260506014053 | 60 | 211 | 4.0 | 11.0 | 0.00 | 0.00 | 0.00 | 73 | 1013.3 |
| 20260506013555 | 60 | 181 | 2.0 | 11.0 | 0.00 | 0.00 | 0.00 | 73 | 1013.3 |
| 20260506013057 | 60 | 286 | 4.0 | 11.0 | 0.00 | 0.00 | 0.00 | 73 | 1013.3 |
| 20260506012552 | 60 | 266 | 6.0 | 10.0 | 0.00 | 0.00 | 0.00 | 73 | 1013.3 |
| 20260506012053 | 59 | 225 | 4.0 | 9.0 | 0.00 | 0.00 | 0.00 | 74 | 1013.3 |
| 20260506011601 | 59 | 207 | 3.0 | 11.0 | 0.00 | 0.00 | 0.00 | 74 | 1013.2 |
| 20260506011057 | 59 | 265 | 6.0 | 11.0 | 0.00 | 0.00 | 0.00 | 74 | 1013.2 |
| 20260506010558 | 59 | 251 | 5.0 | 12.0 | 0.00 | 0.00 | 0.00 | 74 | 1013.3 |
| 20260506010058 | 59 | 267 | 5.0 | 12.0 | 0.00 | 0.00 | 0.00 | 74 | 1013.2 |
| 20260506005552 | 59 | 231 | 6.0 | 12.0 | 0.00 | 0.00 | 0.00 | 74 | 1013.2 |
| 20260506005052 | 59 | 212 | 7.0 | 12.0 | 0.00 | 0.00 | 0.00 | 74 | 1013.1 |
| 20260506004559 | 59 | 281 | 5.0 | 12.0 | 0.00 | 0.00 | 0.00 | 74 | 1013.2 |
| 20260506004055 | 59 | 254 | 4.0 | 12.0 | 0.00 | 0.00 | 0.00 | 74 | 1013.2 |
| 20260506003554 | 59 | 300 | 7.0 | 14.0 | 0.00 | 0.00 | 0.00 | 73 | 1013.2 |
| 20260506003056 | 59 | 229 | 7.0 | 14.0 | 0.00 | 0.00 | 0.00 | 73 | 1013.2 |
| 20260506002556 | 59 | 254 | 8.0 | 13.0 | 0.00 | 0.00 | 0.00 | 72 | 1013.1 |
| 20260506002054 | 60 | 319 | 8.0 | 13.0 | 0.00 | 0.00 | 0.00 | 71 | 1013.1 |
| 20260506001554 | 60 | 287 | 6.0 | 13.0 | 0.00 | 0.00 | 0.00 | 71 | 1013.1 |
| 20260506001053 | 60 | 269 | 6.0 | 16.0 | 0.00 | 0.00 | 0.00 | 71 | 1013.0 |
| 20260506000552 | 60 | 243 | 6.0 | 16.0 | 0.00 | 0.00 | 0.00 | 71 | 1013.0 |
| 20260506000055 | 61 | 244 | 6.0 | 13.0 | 0.00 | 0.00 | 0.00 | 71 | 1013.1 |
| 20260505235556 | 61 | 272 | 6.0 | 13.0 | 0.00 | 0.00 | 0.00 | 71 | 1013.1 |
| 20260505235053 | 60 | 214 | 4.0 | 14.0 | 0.00 | 0.00 | 0.00 | 71 | 1013.2 |
| 20260505234600 | 60 | 251 | 8.0 | 15.0 | 0.00 | 0.00 | 0.00 | 71 | 1013.2 |
| 20260505234052 | 61 | 243 | 8.0 | 17.0 | 0.00 | 0.00 | 0.00 | 71 | 1013.2 |
| 20260505233552 | 61 | 270 | 7.0 | 17.0 | 0.00 | 0.00 | 0.00 | 72 | 1013.2 |
| 20260505233111 | 61 | 284 | 9.0 | 17.0 | 0.00 | 0.00 | 0.00 | 71 | 1013.1 |
| 20260505232555 | 61 | 163 | 8.0 | 15.0 | 0.00 | 0.00 | 0.00 | 72 | 1013.1 |
| 20260505232055 | 60 | 271 | 7.0 | 16.0 | 0.00 | 0.00 | 0.00 | 74 | 1013.1 |
| 20260505231557 | 60 | 271 | 8.0 | 16.0 | 0.00 | 0.00 | 0.00 | 74 | 1013.1 |
| 20260505231059 | 60 | 235 | 7.0 | 15.0 | 0.00 | 0.00 | 0.00 | 75 | 1013.2 |
| 20260505230552 | 59 | 241 | 9.0 | 15.0 | 0.00 | 0.00 | 0.00 | 75 | 1013.2 |
| 20260505225553 | 59 | 247 | 8.0 | 18.0 | 0.00 | 0.00 | 0.00 | 76 | 1013.3 |
| 20260505225053 | 59 | 305 | 9.0 | 15.0 | 0.00 | 0.00 | 0.00 | 76 | 1013.4 |
| 20260505224557 | 59 | 254 | 7.0 | 16.0 | 0.00 | 0.00 | 0.00 | 75 | 1013.5 |
| 20260505224053 | 59 | 262 | 9.0 | 18.0 | 0.00 | 0.00 | 0.00 | 74 | 1013.5 |
| 20260505223552 | 59 | 271 | 9.0 | 18.0 | 0.00 | 0.00 | 0.00 | 74 | 1013.4 |
| 20260505223101 | 60 | 263 | 7.0 | 14.0 | 0.00 | 0.00 | 0.00 | 75 | 1013.4 |
| 20260505222552 | 60 | 209 | 7.0 | 20.0 | 0.00 | 0.00 | 0.00 | 73 | 1013.4 |
| 20260505222052 | 61 | 255 | 6.0 | 20.0 | 0.00 | 0.00 | 0.00 | 73 | 1013.4 |
| 20260505221558 | 61 | 203 | 6.0 | 20.0 | 0.00 | 0.00 | 0.00 | 73 | 1013.5 |
| 20260505221051 | 61 | 239 | 8.0 | 20.0 | 0.00 | 0.00 | 0.00 | 71 | 1013.5 |
| 20260505220559 | 61 | 246 | 8.0 | 20.0 | 0.00 | 0.00 | 0.00 | 70 | 1013.5 |
| 20260505220056 | 61 | 269 | 9.0 | 16.0 | 0.00 | 0.00 | 0.00 | 69 | 1013.6 |
| 20260505215555 | 62 | 276 | 6.0 | 16.0 | 0.00 | 0.00 | 0.00 | 70 | 1013.6 |
| 20260505215055 | 61 | 259 | 8.0 | 16.0 | 0.00 | 0.00 | 0.00 | 69 | 1013.5 |
| 20260505214559 | 61 | 256 | 7.0 | 15.0 | 0.00 | 0.00 | 0.00 | 69 | 1013.6 |
| 20260505214055 | 61 | 278 | 7.0 | 15.0 | 0.00 | 0.00 | 0.00 | 69 | 1013.6 |
| 20260505213555 | 61 | 236 | 8.0 | 17.0 | 0.00 | 0.00 | 0.00 | 66 | 1013.7 |
| 20260505213056 | 62 | 167 | 8.0 | 17.0 | 0.00 | 0.00 | 0.00 | 65 | 1013.6 |
| 20260505212552 | 62 | 234 | 9.0 | 17.0 | 0.00 | 0.00 | 0.00 | 64 | 1013.5 |
| 20260505212055 | 62 | 284 | 7.0 | 14.0 | 0.00 | 0.00 | 0.00 | 63 | 1013.6 |
| 20260505211609 | 62 | 250 | 6.0 | 14.0 | 0.00 | 0.00 | 0.00 | 63 | 1013.6 |
| 20260505211056 | 62 | 205 | 5.0 | 13.0 | 0.00 | 0.00 | 0.00 | 64 | 1013.7 |
| 20260505210555 | 61 | 283 | 6.0 | 13.0 | 0.00 | 0.00 | 0.00 | 63 | 1013.7 |
| 20260505210059 | 61 | 254 | 4.0 | 14.0 | 0.00 | 0.00 | 0.00 | 62 | 1013.8 |
| 20260505205551 | 61 | 279 | 10.0 | 15.0 | 0.00 | 0.00 | 0.00 | 62 | 1013.8 |
| 20260505205055 | 62 | 306 | 7.0 | 16.0 | 0.00 | 0.00 | 0.00 | 64 | 1013.7 |
| 20260505204600 | 61 | 232 | 7.0 | 16.0 | 0.00 | 0.00 | 0.00 | 64 | 1013.6 |
| 20260505204052 | 61 | 246 | 7.0 | 16.0 | 0.00 | 0.00 | 0.00 | 65 | 1013.6 |
| 20260505203557 | 61 | 242 | 10.0 | 18.0 | 0.00 | 0.00 | 0.00 | 64 | 1013.7 |
| 20260505203058 | 61 | 242 | 7.0 | 18.0 | 0.00 | 0.00 | 0.00 | 66 | 1013.7 |
| 20260505202552 | 62 | 296 | 9.0 | 18.0 | 0.00 | 0.00 | 0.00 | 66 | 1013.6 |
| 20260505202056 | 62 | 239 | 7.0 | 18.0 | 0.00 | 0.00 | 0.00 | 63 | 1013.6 |
| 20260505201600 | 61 | 278 | 11.0 | 16.0 | 0.00 | 0.00 | 0.00 | 62 | 1013.6 |
| 20260505201056 | 62 | 297 | 9.0 | 16.0 | 0.00 | 0.00 | 0.00 | 64 | 1013.6 |
| 20260505200556 | 62 | 302 | 10.0 | 16.0 | 0.00 | 0.00 | 0.00 | 64 | 1013.6 |
| 20260505200100 | 62 | 219 | 6.0 | 13.0 | 0.00 | 0.00 | 0.00 | 60 | 1013.7 |
| 20260505195555 | 61 | 229 | 7.0 | 16.0 | 0.00 | 0.00 | 0.00 | 58 | 1013.8 |
| 20260505195052 | 62 | 185 | 6.0 | 16.0 | 0.00 | 0.00 | 0.00 | 60 | 1013.8 |
| 20260505194608 | 62 | 266 | 6.0 | 13.0 | 0.00 | 0.00 | 0.00 | 60 | 1013.8 |
| 20260505194052 | 62 | 292 | 7.0 | 14.0 | 0.00 | 0.00 | 0.00 | 62 | 1013.9 |
| 20260505193554 | 62 | 207 | 6.0 | 14.0 | 0.00 | 0.00 | 0.00 | 63 | 1013.9 |
| 20260505193057 | 61 | 235 | 7.0 | 14.0 | 0.00 | 0.00 | 0.00 | 66 | 1013.9 |
| 20260505192555 | 61 | 272 | 7.0 | 14.0 | 0.00 | 0.00 | 0.00 | 63 | 1014.0 |
| 20260505192052 | 62 | 196 | 6.0 | 15.0 | 0.00 | 0.00 | 0.00 | 62 | 1013.9 |
| 20260505191554 | 61 | 270 | 5.0 | 15.0 | 0.00 | 0.00 | 0.00 | 63 | 1013.8 |
| 20260505191054 | 61 | 196 | 6.0 | 17.0 | 0.00 | 0.00 | 0.00 | 63 | 1013.9 |
| 20260505190552 | 61 | 250 | 5.0 | 17.0 | 0.00 | 0.00 | 0.00 | 63 | 1013.9 |
| 20260505190058 | 62 | 184 | 7.0 | 15.0 | 0.00 | 0.00 | 0.00 | 64 | 1013.8 |
| 20260505185557 | 62 | 261 | 5.0 | 13.0 | 0.00 | 0.00 | 0.00 | 65 | 1013.9 |